Temperature
9 10 10 10 9 9 9 10 10 10 10 10 10 10 10 10 10 10 10 10 10 10 10 10 10 10 10 10 10 11 11 11 10 10 10 10 10 10 10 11 11 11 11
9 9 9 9 9 9 9 9 9 9 9 9 9 9 9 9 9 10 10 10 10 10 10 10 10 10 10 10 10 10 10 10 10 10 10 10 10 10 10 10 10 10 10
8 8 8 9 8 8 9 9 9 9 9 9 9 9 9 9 9 9 9 9 9 9 9 9 9 9 9 9 9 10 10 10 10 9 9 9 10 9 10 10 10 10 10
8 8 8 8 8 8 8 8 8 8 8 8 8 8 8 8 8 9 9 9 9 9 9 9 9 9 9 9 9 9 9 9 9 9 9 9 9 9 9 9 9 10 10
8 8 8 8 8 8 8 8 8 7 7 7 8 8 8 8 8 8 8 8 8 8 8 8 8 9 9 9 9 8 8 8 9 9 9 9 9 9 9 9 9 9 9
7 7 7 7 7 7 7 7 7 7 7 7 7 7 7 7 7 8 8 8 8 8 8 8 8 8 8 8 8 8 8 8 8 8 8 8 8 8 8 8 8 8 9
6 7 7 7 7 7 7 7 7 6 6 6 6 6 6 7 7 7 7 7 7 7 7 7 8 8 8 8 8 8 8 8 8 8 8 8 8 8 8 8 8 8 8
6 6 6 6 6 6 6 6 6 6 6 6 6 5 5 6 6 6 7 7 7 7 7 7 7 7 7 7 7 7 7 7 7 7 7 7 7 7 8 8 8 8 8
5 5 5 5 6 6 6 6 5 5 5 5 5 5 5 5 5 6 6 6 6 6 6 6 7 7 7 7 7 7 7 7 7 7 7 7 7 7 7 7 7 7 7
5 5 5 5 5 5 5 5 5 5 5 5 5 5 5 5 4 4 5 5 6 6 6 6 6 6 6 6 6 6 6 6 6 6 6 6 6 6 7 7 7 7 7
4 4 4 4 4 4 5 5 4 4 4 4 4 4 4 4 4 4 4 4 5 5 5 5 5 6 6 6 6 6 6 6 6 6 6 6 6 6 6 6 6 6 6
3 4 4 4 4 4 4 4 4 4 4 4 4 4 4 4 4 3 3 3 4 4 4 5 5 5 5 5 5 5 5 5 5 5 5 5 5 5 6 6 6 6 6
3 3 3 3 3 3 3 3 3 3 3 3 3 3 3 3 3 3 3 3 3 3 3 4 4 4 4 4 5 5 5 5 5 5 5 5 5 5 5 5 5 5 5
2 2 2 3 3 3 3 3 3 3 3 3 3 3 3 3 3 3 3 2 2 2 2 3 3 3 3 4 4 4 4 4 4 4 4 4 4 5 5 5 5 5 5
2 2 2 2 2 2 2 2 2 2 2 2 2 2 2 2 2 2 2 2 2 1 1 2 2 3 3 3 3 3 3 4 4 4 4 4 4 4 4 4 4 4 4
1 1 1 1 1 1 1 1 1 1 1 1 1 1 1 1 1 1 1 1 1 1 1 1 2 2 2 2 2 3 3 3 3 3 3 3 3 3 3 3 3 3 4
0 0 0 0 1 1 1 1 1 1 1 1 1 1 1 1 1 1 1 0 1 1 1 1 1 1 1 1 1 2 2 2 2 2 2 2 2 2 2 2 3 3 3
-0 -0 -0 -0 -0 -0 -0 -0 -0 -0 -0 -0 -0 -0 -0 -0 -0 -0 -0 -0 0 0 0 0 0 0 0 0 1 1 1 1 1 2 2 2 2 2 2 2 2 2 2
-1 -1 -1 -1 -1 -1 -1 -1 -1 -1 -1 -1 -1 -1 -1 -1 -1 -1 -1 -1 -1 -1 -1 -1 -0 -0 -0 -0 -0 -0 0 0 1 1 1 1 1 1 1 1 1 2 2
-1 -2 -2 -2 -2 -2 -2 -2 -2 -2 -2 -2 -2 -2 -2 -2 -1 -1 -1 -1 -1 -1 -2 -2 -1 -1 -1 -1 -1 -1 -1 -0 -0 -0 -0 0 0 0 1 1 1 1 1
-2 -2 -2 -2 -2 -2 -2 -2 -3 -3 -2 -2 -2 -2 -2 -2 -2 -2 -2 -2 -2 -2 -2 -2 -2 -2 -2 -2 -2 -2 -2 -1 -1 -1 -1 -0 -0 -0 0 0 0 0 0
-3 -3 -3 -3 -3 -3 -3 -3 -3 -3 -3 -3 -3 -3 -3 -3 -3 -3 -3 -3 -3 -3 -3 -3 -3 -3 -3 -3 -3 -3 -3 -3 -2 -2 -2 -1 -1 -1 -1 -0 -0 -0 -0
-3 -3 -3 -3 -3 -3 -4 -4 -4 -4 -4 -3 -3 -3 -3 -3 -3 -3 -3 -3 -4 -4 -4 -4 -4 -4 -3 -3 -3 -3 -3 -4 -3 -3 -3 -2 -2 -2 -1 -1 -1 -1 -1
-4 -4 -4 -4 -4 -4 -4 -4 -4 -5 -4 -4 -4 -4 -4 -4 -4 -4 -4 -4 -4 -4 -4 -4 -4 -4 -4 -4 -4 -4 -4 -4 -4 -4 -4 -4 -3 -3 -2 -2 -2 -2 -2
-5 -5 -5 -5 -5 -5 -5 -5 -5 -5 -5 -5 -5 -5 -5 -5 -5 -5 -5 -4 -5 -5 -5 -5 -5 -5 -5 -5 -5 -5 -5 -5 -5 -4 -4 -5 -4 -4 -3 -3 -3 -3 -3
-6 -6 -6 -5 -5 -5 -5 -6 -6 -6 -6 -6 -6 -6 -6 -5 -5 -5 -5 -5 -6 -6 -6 -6 -6 -6 -6 -6 -6 -6 -6 -6 -6 -6 -5 -5 -5 -5 -5 -4 -4 -4 -4
Wind_Speed
3 3 3 3 3 4 3 2 3 4 4 4 4 5 6 7 8 7 7 8 7 7 6 6 6 6 6 6 7 7 8 9 10 9 9 8 8 9 9 9 9 8 8
3 2 2 2 2 3 2 2 2 3 3 3 4 5 5 5 6 7 6 7 7 6 6 5 5 5 5 5 5 6 7 7 8 9 9 8 8 7 7 7 7 7 7
3 3 2 2 3 3 2 2 3 3 3 3 2 4 4 4 5 5 5 5 5 6 5 5 4 4 4 4 4 5 5 6 6 6 7 7 7 7 6 6 6 5 5
3 3 2 2 2 2 2 2 1 1 1 1 2 2 3 3 3 4 4 5 4 4 4 5 5 4 3 3 3 4 4 5 5 6 6 6 5 5 5 5 4 4 4
3 3 2 2 2 2 1 1 1 1 1 1 1 1 1 2 2 2 3 4 4 4 3 3 3 4 3 2 2 2 3 3 4 4 4 5 5 5 4 3 3 2 3
2 2 2 2 3 1 1 1 2 1 1 1 2 2 2 1 2 2 2 3 3 3 3 2 3 2 2 1 1 1 1 1 2 2 2 2 2 3 4 4 3 2 1
2 2 2 2 2 1 1 1 2 2 1 1 2 2 2 1 0 0 1 1 2 2 2 2 2 1 1 0 0 1 1 0 1 1 1 1 1 1 2 3 4 3 2
1 1 1 1 1 1 2 2 2 1 1 1 1 1 0 1 1 1 0 0 0 1 1 1 1 1 1 1 1 1 2 2 2 1 1 1 1 2 2 2 3 4 4
2 1 1 1 1 2 2 2 2 2 1 1 0 1 2 2 1 1 2 1 1 0 0 1 1 0 1 2 1 1 1 2 3 3 3 3 3 3 3 3 4 4 5
2 2 1 1 1 1 2 2 2 1 2 2 1 1 1 1 1 1 2 1 2 1 1 1 1 1 1 1 2 1 1 2 4 4 4 4 4 4 5 5 5 6 6
1 2 1 1 1 1 2 1 1 2 2 2 2 1 1 1 1 1 2 2 2 2 1 1 2 2 2 2 2 2 2 3 4 5 5 6 5 6 6 6 6 6 6
1 1 2 1 1 1 1 1 2 2 2 2 2 1 1 1 2 2 3 2 3 2 2 1 2 3 3 3 3 3 4 4 5 6 6 6 6 7 7 7 7 7 7
2 3 2 2 1 1 2 2 2 3 3 3 3 2 2 2 1 1 2 2 2 2 2 2 2 3 3 2 3 4 5 6 6 7 7 7 7 7 7 8 8 8 8
3 2 2 2 2 2 2 2 2 3 3 3 3 3 2 2 2 2 2 2 2 2 2 3 2 3 2 3 5 5 5 7 8 8 9 8 8 8 8 8 8 8 8
2 2 2 2 3 2 3 3 3 3 3 3 3 3 3 2 2 2 2 3 3 3 4 3 2 1 2 4 5 6 6 8 9 10 10 9 9 9 9 9 9 9 9
2 2 2 2 3 2 3 3 3 3 3 3 3 3 3 3 2 2 3 3 3 3 4 3 2 2 2 4 6 6 7 9 9 10 10 11 10 10 10 10 10 10 10
2 2 3 3 3 3 3 3 4 4 4 4 3 4 4 3 3 3 3 3 3 3 5 4 2 1 2 3 4 6 7 7 8 11 12 12 12 12 11 11 11 11 11
2 3 3 3 4 3 3 3 4 4 4 5 5 4 5 4 4 3 3 4 3 3 4 5 3 2 3 3 3 4 6 7 8 10 12 13 13 12 12 12 12 12 12
2 3 3 3 4 4 4 4 4 4 5 5 5 5 5 4 5 4 3 4 3 3 3 4 4 2 2 2 3 4 4 5 7 9 11 12 13 13 13 13 13 13 13
2 3 4 4 4 4 4 4 4 4 4 4 5 5 5 5 6 5 4 4 3 3 3 4 4 3 3 3 2 3 4 3 5 7 9 10 11 13 14 14 14 14 14
3 3 3 4 4 4 5 4 4 5 5 5 5 5 5 6 7 6 5 4 4 4 3 4 4 4 3 3 3 3 4 4 5 4 3 6 7 8 11 13 14 14 14
2 3 3 4 4 5 7 8 6 5 5 5 6 5 5 6 7 8 8 8 7 6 5 5 5 6 5 4 3 4 4 4 5 2 3 6 5 6 8 10 13 14 14
2 3 3 3 4 5 8 8 8 4 4 5 5 5 4 5 5 4 6 7 7 9 9 6 6 7 5 4 4 5 5 5 6 4 4 6 4 5 7 10 12 14 14
3 3 3 3 4 5 7 8 7 4 4 4 4 5 5 4 5 4 3 4 4 5 6 5 6 6 6 5 5 5 5 5 5 4 3 5 4 5 7 8 12 12 12
3 3 3 3 4 5 7 8 7 3 3 4 4 4 5 5 7 7 5 4 4 4 6 7 8 8 9 9 7 4 4 5 6 5 2 3 3 4 5 5 9 10 11
3 3 4 3 4 4 7 7 6 3 3 3 3 4 6 6 8 8 5 4 5 5 4 4 5 6 5 6 8 6 5 5 5 4 3 2 3 2 4 3 4 6 8
Wind_Direction
79 79 79 78 77 82 76 53 57 56 52 52 55 56 51 54 64 71 69 64 65 67 72 74 71 70 71 74 72 78 78 76 76 77 76 78 78 78 76 75 73 75 77
87 83 80 76 74 75 66 58 72 70 59 51 52 54 57 58 67 71 72 65 62 62 63 63 63 66 68 70 72 76 84 83 80 76 73 73 77 78 77 73 70 68 69
92 81 78 80 82 82 74 66 68 66 69 57 51 52 54 60 70 70 74 75 68 65 64 59 59 65 65 65 75 77 88 90 85 81 75 71 70 73 74 73 71 71 68
92 87 71 75 95 105 91 81 74 74 75 67 51 41 47 50 63 78 80 84 84 77 72 67 59 56 66 66 73 78 83 92 86 83 77 70 66 64 67 66 68 71 65
90 97 85 91 103 102 89 96 91 101 93 67 53 40 43 41 43 60 83 85 86 89 91 82 69 60 64 65 54 85 84 100 93 86 82 72 63 58 52 48 51 67 65
93 99 99 98 94 81 112 115 107 84 97 95 52 29 17 15 39 33 56 81 85 87 79 87 79 58 63 74 64 131 103 118 120 99 84 70 57 50 44 32 29 45 44
115 98 90 104 100 111 118 128 127 118 86 86 66 13 341 332 356 337 34 68 92 109 86 68 89 88 69 86 218 203 217 240 163 142 109 62 26 7 19 18 19 9 356
111 122 103 145 139 133 129 126 118 129 210 161 135 143 282 321 321 300 268 206 155 104 96 84 93 129 138 127 236 233 237 253 231 238 251 256 282 313 311 327 334 350 341
169 158 156 161 162 149 164 166 161 154 198 247 219 158 172 219 270 289 256 242 217 231 157 155 175 249 224 171 170 234 268 269 259 259 263 261 267 279 292 295 315 320 331
172 177 177 177 176 173 177 186 178 184 175 208 271 289 245 185 185 272 290 255 251 264 255 262 212 228 247 155 163 210 307 307 276 264 266 269 273 276 282 291 296 305 307
186 186 197 200 201 191 187 181 187 194 200 202 217 250 277 290 248 215 258 266 275 268 245 253 215 194 216 204 195 230 263 288 287 269 268 272 274 276 280 286 291 297 303
221 207 213 216 229 208 193 201 208 199 209 216 222 221 208 222 228 220 240 253 257 262 261 245 220 203 207 211 221 249 260 269 282 268 268 276 281 281 282 283 287 289 292
221 227 230 220 239 238 219 207 210 210 209 215 221 222 222 238 241 243 239 254 265 270 246 253 221 210 216 212 235 261 261 266 278 269 265 272 278 283 286 286 287 290 290
227 234 236 231 230 239 235 222 225 219 216 218 228 218 224 237 231 229 230 233 266 275 253 246 262 211 213 227 243 260 264 268 270 273 265 267 271 276 279 282 284 286 288
237 224 240 248 236 234 236 229 223 221 220 223 225 220 227 240 227 229 231 218 213 245 259 240 234 236 237 245 249 249 255 265 269 271 267 263 266 270 272 275 277 280 283
235 227 235 243 245 238 239 237 229 219 218 232 230 226 233 239 234 229 233 240 229 228 255 246 239 254 237 255 262 264 260 267 267 271 273 264 263 265 268 271 273 276 278
231 227 232 238 238 238 243 237 230 219 220 231 239 235 240 237 233 233 232 237 239 230 253 268 262 251 246 252 270 266 264 263 262 269 272 268 263 263 265 267 269 272 274
235 233 233 233 236 236 235 230 239 231 224 229 232 234 240 242 240 238 232 235 241 236 240 260 266 256 255 244 252 259 269 265 261 268 269 272 265 262 263 264 266 269 272
238 238 235 230 234 231 228 232 233 241 237 232 230 230 233 232 236 237 231 233 245 253 247 250 263 263 266 260 268 272 275 275 273 273 272 274 266 263 264 266 267 269 270
233 237 241 239 238 237 236 235 240 243 247 247 240 236 235 234 231 227 231 232 237 243 247 249 261 262 262 264 260 265 279 275 278 279 274 276 269 267 267 267 267 267 267
260 249 243 244 244 239 234 226 235 243 245 253 250 243 242 241 237 234 238 231 227 233 242 246 254 264 260 251 254 261 273 283 278 264 282 280 276 269 269 267 266 265 265
254 250 240 241 246 250 247 243 242 236 240 245 247 243 240 235 236 240 246 246 237 232 233 240 250 249 253 256 262 269 274 284 277 267 288 286 275 263 264 267 268 267 266
271 259 254 246 246 252 250 248 249 244 238 241 244 245 248 241 236 234 246 251 253 251 244 240 245 251 254 254 255 261 261 268 270 272 285 276 270 271 266 271 274 270 266
283 280 273 262 257 260 255 251 250 244 243 247 247 246 242 238 236 234 236 247 252 257 255 249 244 252 255 251 249 253 260 276 283 273 260 269 275 275 281 273 271 271 273
288 282 281 272 265 269 264 258 253 239 242 250 253 250 245 239 242 240 233 239 252 264 270 262 257 259 264 264 261 269 265 266 277 273 252 250 273 286 282 271 267 270 278
290 288 284 279 274 273 266 263 252 236 240 251 255 249 252 249 244 242 229 224 241 254 257 268 268 268 267 265 261 249 246 255 269 272 241 240 273 302 295 275 258 271 279
Height
1532 1532 1534 1535 1536 1537 1539 1540 1541 1542 1543 1544 1545 1546 1547 1547 1548 1549 1549 1550 1551 1552 1553 1554 1555 1555 1556 1556 1557 1557 1558 1558 1559 1559 1559 1560 1560 1560 1560 1560 1560 1561 1561
1530 1531 1532 1533 1534 1535 1537 1538 1539 1540 1541 1542 1543 1544 1545 1546 1546 1547 1548 1548 1550 1550 1551 1552 1553 1554 1554 1555 1556 1556 1557 1557 1558 1558 1559 1559 1559 1559 1560 1560 1560 1560 1560
1528 1529 1530 1531 1532 1533 1535 1536 1537 1538 1540 1541 1542 1543 1543 1544 1545 1545 1546 1547 1548 1549 1549 1550 1551 1552 1553 1554 1554 1555 1555 1556 1556 1557 1558 1558 1558 1558 1559 1559 1559 1559 1559
1526 1527 1528 1529 1530 1531 1532 1534 1535 1536 1537 1539 1539 1540 1541 1542 1543 1544 1544 1545 1546 1546 1547 1548 1549 1550 1551 1552 1552 1553 1554 1554 1555 1555 1556 1556 1557 1557 1557 1557 1557 1558 1558
1523 1524 1526 1527 1528 1529 1530 1531 1532 1534 1535 1536 1537 1538 1539 1540 1541 1542 1542 1543 1544 1544 1545 1546 1547 1547 1548 1549 1550 1551 1552 1552 1553 1553 1554 1555 1555 1555 1555 1556 1556 1556 1556
1520 1522 1523 1524 1525 1526 1527 1528 1530 1531 1533 1534 1535 1536 1537 1538 1539 1540 1540 1541 1542 1542 1543 1544 1544 1545 1546 1547 1548 1548 1549 1550 1551 1551 1552 1552 1553 1553 1554 1554 1554 1554 1554
1517 1519 1520 1521 1522 1523 1525 1526 1527 1528 1530 1531 1533 1533 1534 1535 1536 1537 1538 1539 1539 1540 1541 1541 1542 1542 1543 1544 1545 1546 1547 1547 1548 1549 1549 1550 1550 1551 1551 1552 1552 1552 1552
1514 1516 1517 1518 1519 1520 1522 1523 1524 1525 1527 1529 1530 1531 1531 1533 1533 1534 1535 1536 1537 1537 1538 1538 1539 1539 1540 1541 1542 1542 1543 1544 1545 1546 1546 1547 1547 1548 1548 1549 1549 1549 1550
1511 1513 1514 1515 1516 1517 1518 1519 1521 1522 1524 1526 1527 1529 1529 1529 1530 1531 1531 1533 1534 1534 1535 1536 1536 1537 1537 1538 1538 1539 1540 1541 1542 1542 1543 1544 1544 1545 1545 1545 1546 1546 1546
1509 1510 1511 1512 1513 1514 1515 1516 1518 1519 1521 1522 1524 1525 1527 1527 1528 1527 1528 1529 1530 1531 1532 1532 1533 1533 1534 1534 1535 1536 1537 1538 1538 1539 1539 1540 1540 1541 1541 1542 1542 1542 1543
1505 1506 1508 1509 1509 1510 1511 1513 1514 1516 1517 1518 1520 1521 1522 1524 1524 1525 1524 1525 1526 1527 1528 1529 1529 1530 1531 1531 1532 1533 1533 1534 1534 1535 1535 1536 1536 1537 1537 1537 1538 1538 1538
1501 1503 1504 1505 1506 1506 1507 1509 1510 1512 1513 1514 1515 1517 1518 1519 1520 1521 1521 1521 1522 1523 1524 1525 1526 1526 1527 1528 1528 1529 1529 1530 1530 1531 1531 1532 1532 1532 1533 1533 1533 1533 1534
1497 1498 1499 1501 1502 1502 1503 1505 1506 1507 1509 1510 1511 1512 1514 1515 1516 1518 1518 1518 1518 1519 1519 1520 1522 1522 1523 1524 1524 1525 1525 1525 1526 1526 1527 1527 1528 1528 1528 1528 1529 1529 1529
1493 1495 1496 1496 1497 1498 1499 1500 1502 1503 1504 1505 1506 1508 1509 1511 1512 1513 1514 1515 1514 1514 1515 1515 1517 1518 1519 1519 1520 1520 1520 1521 1521 1521 1522 1522 1523 1523 1523 1523 1524 1524 1524
1490 1491 1491 1492 1493 1494 1495 1496 1497 1498 1499 1501 1502 1503 1504 1506 1507 1508 1509 1510 1512 1510 1509 1510 1512 1513 1514 1514 1515 1515 1515 1516 1516 1516 1517 1517 1518 1518 1518 1518 1518 1519 1519
1485 1486 1487 1488 1489 1489 1490 1491 1492 1494 1495 1496 1497 1498 1499 1500 1502 1503 1504 1505 1506 1506 1505 1505 1507 1508 1509 1509 1510 1510 1510 1511 1511 1511 1511 1512 1513 1513 1513 1513 1513 1513 1513
1481 1482 1482 1483 1484 1485 1486 1486 1487 1489 1490 1491 1492 1493 1494 1495 1496 1497 1498 1499 1500 1501 1501 1500 1502 1503 1504 1504 1504 1504 1505 1505 1505 1505 1506 1507 1507 1507 1507 1507 1507 1507 1508
1477 1477 1478 1478 1479 1480 1481 1482 1482 1483 1484 1485 1487 1487 1489 1490 1491 1492 1493 1494 1495 1496 1496 1495 1496 1497 1498 1499 1499 1499 1499 1499 1499 1500 1500 1500 1501 1501 1501 1501 1502 1502 1502
1472 1473 1473 1474 1474 1475 1476 1477 1477 1478 1479 1480 1481 1482 1483 1484 1485 1486 1487 1488 1489 1490 1491 1491 1490 1491 1492 1493 1493 1493 1493 1493 1493 1493 1493 1494 1494 1495 1495 1495 1495 1495 1495
1468 1468 1469 1469 1469 1470 1471 1472 1473 1473 1474 1475 1476 1477 1478 1479 1480 1481 1482 1482 1483 1484 1485 1485 1485 1485 1486 1486 1487 1486 1486 1487 1487 1487 1487 1487 1488 1488 1489 1489 1489 1489 1489
1463 1464 1464 1464 1465 1465 1466 1467 1468 1469 1469 1470 1470 1471 1472 1473 1474 1475 1476 1477 1478 1478 1479 1479 1479 1479 1479 1480 1481 1480 1481 1480 1480 1481 1480 1480 1481 1481 1481 1482 1482 1481 1482
1459 1459 1459 1460 1460 1460 1461 1462 1463 1463 1464 1464 1465 1466 1467 1467 1468 1469 1470 1471 1472 1473 1473 1473 1473 1473 1473 1474 1475 1475 1475 1474 1473 1474 1474 1473 1474 1473 1474 1474 1474 1474 1474
1454 1454 1455 1455 1455 1455 1456 1457 1458 1458 1458 1459 1459 1460 1460 1461 1462 1463 1464 1465 1466 1467 1468 1468 1467 1467 1468 1469 1470 1470 1469 1469 1468 1468 1468 1465 1467 1466 1467 1467 1467 1467 1467
1450 1450 1450 1450 1450 1450 1451 1452 1452 1453 1453 1453 1454 1454 1455 1455 1456 1457 1458 1458 1459 1460 1461 1461 1461 1461 1462 1463 1464 1465 1464 1463 1462 1462 1463 1460 1459 1460 1460 1460 1460 1460 1460
1446 1446 1446 1446 1446 1446 1446 1447 1447 1447 1447 1448 1448 1448 1449 1449 1450 1452 1452 1452 1453 1454 1455 1455 1455 1456 1456 1457 1458 1458 1458 1457 1455 1455 1456 1455 1454 1453 1452 1452 1453 1454 1454
1442 1442 1441 1441 1441 1441 1441 1442 1443 1442 1442 1442 1443 1443 1444 1444 1445 1445 1446 1446 1446 1447 1448 1448 1449 1449 1450 1450 1451 1452 1452 1451 1450 1449 1449 1450 1449 1448 1445 1445 1446 1447 1447